Theta_e
346 346 345 343 343 338 337 334 336 339 339 335 333 331 330 332 336 337 335 331 332 333 344 346 345 343 343 341 323 322 324 327 336 333 330 333 335 339 342 343 342 334 337
346 346 344 345 343 338 333 333 335 339 338 336 333 331 330 340 343 340 343 340 338 344 344 346 344 337 332 339 333 339 327 334 339 336 328 331 343 345 345 344 342 330 332
345 346 345 344 342 336 334 339 339 339 338 336 334 331 332 342 344 343 341 343 345 342 338 331 330 322 319 320 329 323 341 343 344 345 345 334 334 342 339 331 327 336 338
346 346 346 345 345 340 338 340 339 339 337 336 334 332 342 342 336 342 342 342 337 330 325 324 327 332 335 331 343 331 341 343 345 346 346 348 334 330 323 324 323 331 337
351 351 346 347 346 343 341 335 333 337 336 333 333 339 338 340 339 341 338 331 327 323 321 338 342 333 339 340 338 338 342 343 343 345 346 347 342 339 335 336 326 327 330
351 351 346 347 347 344 338 331 328 331 331 335 340 340 341 341 341 340 343 341 323 323 322 336 330 329 326 334 332 327 341 342 342 339 341 342 340 327 338 344 333 325 327
351 347 346 346 346 344 338 334 330 334 339 341 342 342 332 330 330 331 338 340 327 329 327 327 339 339 331 329 327 329 342 345 344 341 345 346 327 331 338 333 338 334 328
351 350 346 346 345 342 337 331 331 338 341 342 342 332 329 329 332 334 334 340 335 335 329 329 337 341 341 335 334 332 336 344 345 342 344 345 327 324 336 335 339 335 335
350 349 346 346 345 343 338 331 332 336 341 341 335 330 330 330 329 336 336 335 336 333 332 333 336 337 342 341 335 331 341 344 346 340 346 344 339 327 326 324 324 329 331
352 351 350 346 345 345 342 335 331 333 332 338 337 333 332 344 344 347 345 336 335 335 334 332 331 331 335 338 337 334 343 347 346 342 347 343 331 324 325 329 328 326 326
352 350 352 348 346 347 345 344 340 331 331 328 332 332 348 351 350 348 346 338 335 335 334 335 334 333 331 334 338 337 344 344 344 348 344 346 336 331 325 324 327 331 333
353 350 350 352 350 349 350 345 345 341 333 330 331 333 348 350 349 351 338 345 345 345 342 346 344 333 337 338 343 344 338 345 347 348 344 345 343 340 333 325 324 324 327
351 352 352 351 349 351 350 344 347 351 346 340 345 348 345 349 347 344 345 346 348 343 348 348 345 347 348 348 345 345 347 342 344 346 348 347 343 342 339 333 328 324 323
354 355 353 350 351 354 349 352 352 350 348 346 346 344 344 348 345 344 348 347 349 348 349 348 348 347 347 338 342 344 343 343 344 346 348 346 340 345 343 341 338 335 331
351 349 356 348 353 353 346 351 350 350 347 348 347 349 347 345 347 347 349 344 346 349 348 345 347 346 346 346 334 339 337 337 344 345 346 342 339 347 346 342 341 340 337
350 350 353 349 351 354 350 351 350 347 350 347 350 348 349 350 346 346 348 348 348 347 346 348 343 350 350 349 348 335 336 340 341 343 343 349 343 346 348 343 343 341 339
350 350 352 353 351 349 349 350 348 350 347 351 348 345 346 345 344 346 348 349 349 347 348 345 345 347 344 347 346 339 338 344 341 340 343 343 344 343 348 348 344 342 340
350 352 354 353 353 349 348 350 349 349 350 349 348 349 350 350 350 345 348 350 349 348 347 347 346 347 347 346 347 348 344 342 342 341 340 341 344 347 346 350 349 345 342
352 353 354 354 354 355 353 347 351 349 350 349 349 348 347 347 349 350 347 347 348 347 348 347 347 345 346 347 348 348 349 348 341 342 342 342 343 346 347 346 349 348 347
353 354 355 355 355 355 356 352 353 353 351 351 350 349 348 349 349 349 349 350 348 346 346 347 349 348 348 350 350 348 348 350 349 345 339 342 344 344 345 343 346 348 347
355 357 357 358 356 355 355 354 355 352 352 352 353 353 351 354 351 351 351 349 348 348 346 336 337 346 345 345 347 344 347 344 351 350 344 346 345 344 344 345 345 345 347
356 358 359 359 357 357 356 355 353 349 350 354 354 354 355 353 352 351 347 347 347 346 344 344 344 337 342 343 343 343 344 343 343 349 347 346 346 346 344 343 343 344 346
356 358 360 359 359 357 358 356 355 355 351 351 354 356 353 344 343 344 345 346 343 342 343 344 346 346 344 344 344 344 347 347 346 345 345 346 347 347 346 345 345 344 343
355 358 360 360 356 357 357 359 358 357 354 355 350 352 350 346 343 341 348 343 343 345 346 344 342 343 343 342 343 345 343 339 347 344 343 348 349 349 348 346 344 345 344
352 355 359 360 358 357 355 355 358 353 352 355 351 346 349 341 336 334 337 344 340 338 341 347 342 340 344 344 342 343 344 344 340 344 346 343 340 348 346 344 344 342 344
351 351 355 359 357 350 357 348 350 357 358 354 336 336 337 338 332 330 331 331 331 333 334 338 343 340 340 342 343 345 344 345 344 342 339 343 342 341 348 349 348 346 345
Wind_Speed
16 20 18 18 19 19 21 21 22 22 24 25 24 23 21 19 18 16 14 13 13 13 12 14 15 13 11 11 12 14 14 14 13 13 15 16 17 17 16 15 10 11 11
19 21 20 20 20 20 20 21 20 20 22 21 20 18 17 16 15 17 16 14 13 13 14 13 13 10 10 13 15 16 18 18 18 16 13 14 14 14 15 14 8 9 10
21 21 19 21 19 23 19 17 18 20 19 19 17 14 13 13 15 15 14 14 12 11 10 11 11 11 11 13 16 18 21 19 18 19 19 12 10 12 10 7 7 11 11
20 20 20 21 19 22 20 18 18 19 18 17 14 11 11 13 14 14 14 13 10 10 11 13 14 15 15 14 15 22 19 16 13 10 6 10 6 10 9 8 8 10 9
16 16 18 20 20 20 19 18 16 17 17 16 13 12 12 13 13 13 12 11 9 10 13 16 12 12 12 11 15 19 19 17 17 12 14 12 2 8 9 10 9 8 10
19 15 18 18 20 20 20 19 16 17 17 14 12 13 14 13 12 13 12 11 11 12 13 14 12 12 12 13 13 16 17 17 16 11 7 4 1 4 7 7 6 7 8
16 14 18 18 18 19 20 17 17 15 14 13 14 14 13 11 10 9 11 11 11 11 12 12 12 11 11 11 11 12 14 14 14 6 1 2 2 3 6 5 6 7 6
20 17 19 19 19 19 19 16 17 14 13 14 15 12 11 10 9 9 9 10 10 10 9 9 7 7 7 7 8 9 11 13 11 3 2 1 4 1 4 5 5 5 7
16 16 18 19 19 19 18 16 17 15 13 14 12 10 9 10 10 9 8 8 8 7 6 6 4 4 4 5 6 9 10 12 10 5 5 3 7 2 1 3 4 4 5
16 15 14 17 18 18 18 16 15 14 12 11 10 9 8 8 6 10 7 7 5 5 4 2 2 1 2 3 5 9 8 3 9 12 8 3 7 4 0 2 3 3 4
19 10 15 13 14 15 16 15 14 14 13 10 8 8 9 4 2 4 8 6 6 5 4 4 1 1 2 3 4 3 3 8 11 1 11 5 7 6 2 2 3 3 3
15 13 10 13 15 15 11 13 12 13 14 10 5 4 5 2 2 4 7 9 7 6 1 5 6 1 2 2 4 3 4 2 3 11 9 5 7 8 5 3 3 4 5
14 15 14 12 15 16 12 8 5 6 4 6 6 7 2 4 5 4 9 10 7 10 4 4 4 3 3 4 4 4 7 7 4 6 2 5 6 8 6 4 3 4 5
18 17 14 16 13 15 7 5 5 10 10 6 9 8 10 6 7 7 7 8 11 10 10 6 7 5 15 13 15 15 15 10 4 11 8 11 11 6 8 5 5 4 5
19 16 16 10 18 13 11 7 11 11 6 6 9 12 10 8 6 10 10 12 13 14 6 8 12 12 14 13 10 11 13 16 13 9 13 13 14 7 8 9 8 7 7
16 17 12 9 21 14 16 12 15 14 6 9 8 12 13 10 10 11 12 14 12 10 10 11 8 12 15 9 13 10 10 14 17 13 10 13 12 9 9 11 12 9 7
16 16 14 13 11 12 18 16 14 9 9 7 6 10 16 18 13 12 15 15 14 12 14 17 17 20 19 14 15 11 14 14 14 18 18 19 18 15 13 14 12 12 10
16 16 13 12 12 10 11 10 9 7 9 8 7 10 14 14 17 16 16 13 15 17 18 17 17 19 20 16 14 14 13 15 15 17 18 22 22 19 17 16 17 14 13
17 18 17 15 13 11 12 14 10 9 11 13 13 11 13 17 17 18 18 15 15 18 17 21 21 23 22 22 16 18 23 20 18 20 21 21 21 23 23 24 19 19 17
17 18 17 16 16 14 11 7 10 11 10 10 11 12 14 17 16 18 20 18 18 20 19 22 23 24 27 26 14 18 19 22 24 21 23 25 26 26 26 25 25 24 21
18 17 17 16 14 14 12 7 7 5 9 9 14 14 9 16 17 18 22 23 23 22 25 20 21 26 30 29 26 29 29 28 29 31 24 26 26 26 27 29 26 27 28
20 19 17 15 14 12 11 11 10 5 6 10 11 10 14 15 18 22 21 22 21 22 24 26 27 27 29 27 25 26 29 34 29 33 33 29 32 30 28 30 31 31 31
21 20 18 15 15 14 14 7 9 9 10 9 6 10 10 13 12 20 22 21 21 21 23 23 24 23 28 28 28 24 12 11 20 22 32 32 34 32 29 28 30 31 32
23 20 19 17 15 14 12 14 12 10 9 6 10 6 14 16 18 21 21 23 23 22 21 21 22 26 25 27 28 30 32 32 29 34 33 23 37 35 32 30 29 31 33
24 23 20 19 17 15 13 13 11 10 6 10 6 11 12 13 11 16 20 18 19 23 23 22 24 25 25 28 27 29 30 32 39 40 36 40 39 26 35 35 27 31 33
25 24 22 21 20 17 17 13 16 15 16 15 13 15 16 19 24 16 21 24 27 28 28 27 27 30 30 28 30 31 30 30 32 36 38 42 46 39 27 32 31 27 24
Wind_Direction
121 118 117 120 121 120 119 118 115 112 116 115 112 104 95 92 93 93 95 105 104 100 95 105 106 105 97 99 96 97 104 104 99 106 106 106 104 104 100 83 66 92 90
128 130 130 127 125 123 120 122 121 118 121 121 116 100 89 87 90 89 90 93 99 97 93 102 104 101 100 98 92 91 88 92 91 88 93 106 107 119 114 110 143 95 101
133 133 133 126 129 130 127 123 124 126 125 127 115 97 86 87 91 89 88 91 98 96 95 95 96 93 94 103 101 96 100 95 92 95 73 58 98 103 109 105 103 90 97
121 131 134 128 128 133 132 129 128 128 127 126 118 97 89 91 87 86 86 86 78 88 96 96 92 95 94 104 100 107 102 91 79 67 99 99 52 102 96 89 108 111 100
121 130 138 134 133 135 136 128 128 131 129 125 113 98 93 89 84 85 84 84 81 84 98 99 99 99 97 99 101 112 100 88 76 76 85 120 351 106 103 95 94 106 104
130 145 139 137 139 141 143 132 128 127 127 123 113 107 99 92 85 83 92 84 79 90 101 111 107 98 96 101 110 117 105 96 92 81 146 168 326 94 112 108 86 92 103
139 146 140 139 140 147 150 140 136 129 127 124 119 110 101 96 84 76 84 80 81 90 102 110 104 97 91 95 102 116 109 93 92 120 35 125 351 135 110 120 112 104 107
132 140 144 142 144 151 152 147 144 139 131 127 126 122 108 93 80 85 83 83 87 91 99 112 104 96 89 96 97 96 122 110 96 92 185 341 24 101 134 129 132 129 122
145 142 143 146 150 154 159 157 156 146 140 138 132 123 106 69 56 58 73 81 85 92 109 121 116 106 91 82 100 96 126 127 124 137 218 290 351 0 123 143 153 145 139
130 138 145 148 154 155 165 170 169 167 156 146 138 121 100 74 61 29 49 42 62 74 74 101 147 162 132 90 108 117 122 126 153 146 215 266 354 337 274 156 158 165 168
141 150 148 145 153 158 172 174 180 184 184 168 153 127 91 41 32 25 13 12 22 27 54 46 12 254 232 130 83 113 111 81 114 342 207 269 342 329 310 232 194 186 187
143 147 149 153 163 161 167 173 179 193 200 203 205 157 84 275 228 293 339 355 15 5 313 19 17 72 72 148 318 332 199 193 359 172 248 299 316 320 311 277 238 219 212
162 147 147 145 126 144 166 165 159 169 191 203 210 233 156 254 267 297 299 317 309 315 308 352 30 66 42 243 229 264 277 186 152 231 233 243 295 308 303 290 267 249 236
154 157 150 143 147 161 131 161 113 184 187 241 260 243 226 227 262 267 243 294 281 281 246 320 318 270 239 248 214 221 224 211 274 278 226 267 271 287 286 280 267 256 251
152 151 179 176 158 156 169 165 185 202 196 246 236 276 294 257 246 263 279 276 243 295 329 282 257 256 273 276 240 232 231 211 222 220 260 278 263 271 279 266 266 273 251
159 157 180 180 172 172 181 174 196 187 216 215 239 259 273 290 240 242 271 289 293 290 278 282 294 267 272 283 279 248 237 229 225 218 246 270 264 255 273 263 266 264 253
170 170 183 180 195 187 192 182 192 181 230 229 242 262 280 292 294 260 255 254 266 283 281 288 273 277 273 267 266 270 249 240 242 228 227 248 265 249 261 258 258 263 259
175 176 185 182 204 210 192 207 204 200 215 247 258 262 274 279 289 285 266 268 283 290 284 281 278 281 286 280 279 280 290 250 239 248 250 245 244 259 254 255 251 255 260
185 184 185 188 207 216 218 212 216 210 234 236 232 246 265 278 285 285 289 275 273 281 281 288 287 288 282 280 277 284 279 277 267 239 250 253 252 239 249 250 248 247 251
194 194 187 195 192 210 218 215 212 232 247 255 250 243 239 256 269 277 280 282 276 269 274 272 282 288 280 287 283 271 283 281 275 279 242 240 250 252 248 248 246 248 250
191 198 198 200 215 209 209 216 226 227 247 278 271 258 254 262 299 284 280 275 271 275 270 283 267 269 266 267 277 275 270 265 272 276 265 248 251 248 246 249 249 245 252
195 204 208 205 220 220 217 208 229 235 267 271 275 296 307 303 294 296 313 301 289 281 281 273 283 273 268 269 269 275 274 277 259 258 267 249 245 247 245 246 250 244 247
199 204 213 207 215 227 212 200 231 249 259 265 279 277 272 318 313 311 310 313 302 295 290 285 282 280 278 276 268 253 266 268 290 284 271 259 245 245 244 244 250 251 248
198 209 206 219 207 223 210 196 221 234 263 266 315 288 297 327 326 316 306 312 309 304 287 288 285 284 284 279 278 269 259 263 278 291 275 289 253 242 241 246 254 251 252
197 201 210 217 211 202 230 210 227 239 220 261 233 270 273 309 310 318 312 299 292 296 298 292 295 290 285 283 279 278 273 270 259 254 273 275 265 266 254 260 259 249 244
199 196 203 213 209 199 215 219 209 209 228 242 277 294 307 296 309 300 285 283 285 291 291 284 282 284 287 284 281 277 270 262 259 256 256 266 267 263 261 259 250 257 252